Date,TemperatureHighF,TemperatureAvgF,TemperatureLowF,DewpointHighF,DewpointAvgF,DewpointLowF,HumidityHigh,HumidityAvg,HumidityLow,PressureMaxIn,PressureMinIn,WindSpeedMaxMPH,WindSpeedAvgMPH,GustSpeedMaxMPH,PrecipitationSumIn
2013-8-1,83,72,66,63,48,37,74,46,21,0.00,0.00,12,4,14,0.00
2013-8-2,86,72,66,64,56,46,82,61,27,0.00,0.00,15,6,15,0.08
2013-8-3,83,72,71,64,54,44,77,54,29,0.00,0.00,14,5,14,0.00
2013-8-4,85,71,64,52,41,33,58,35,18,0.00,0.00,21,3,21,0.04
2013-8-5,87,68,59,50,35,24,58,32,13,0.00,0.00,15,4,15,0.00
2013-8-6,89,67,54,52,37,24,70,38,13,0.00,0.00,8,3,8,0.00
2013-8-7,90,69,58,59,39,25,74,39,12,0.00,0.00,14,4,14,0.00
2013-8-8,90,72,65,62,50,34,70,47,21,0.00,0.00,14,5,14,0.00
2013-8-9,76,73,71,70,66,61,95,77,61,0.00,0.00,23,7,23,0.04
2013-8-10,85,74,70,71,51,32,98,51,20,0.00,0.00,15,5,15,0.00
2013-8-11,88,70,59,50,37,31,57,31,15,0.00,0.00,13,5,13,0.00
2013-8-12,86,72,68,58,50,43,67,45,26,0.00,0.00,8,4,10,0.00
2013-8-13,73,69,66,66,60,55,80,73,55,0.00,0.00,8,2,8,0.00
2013-8-14,86,70,65,62,41,29,81,39,16,0.00,0.00,15,5,15,0.00
2013-8-15,79,68,61,40,35,28,45,30,18,0.00,0.00,13,6,13,0.00
2013-8-16,90,71,60,54,42,34,64,37,18,0.00,0.00,12,5,12,0.00
2013-8-17,96,72,63,54,42,32,60,37,14,0.00,0.00,10,3,10,0.00
2013-8-18,82,69,62,58,48,35,72,51,21,0.00,0.00,10,2,10,0.00
2013-8-19,79,70,60,58,51,42,78,52,35,0.00,0.00,12,4,12,0.00
2013-8-20,91,74,66,58,51,39,70,47,19,0.00,0.00,8,3,8,0.00
2013-8-21,93,74,65,63,54,43,77,53,20,0.00,0.00,9,3,9,0.00
2013-8-22,77,73,70,68,63,53,88,73,46,0.00,0.00,13,4,13,0.00
2013-8-23,82,72,63,67,48,31,89,50,19,0.00,0.00,23,5,23,0.12
2013-8-24,95,67,55,49,36,22,61,36,11,0.00,0.00,21,4,21,0.00
2013-8-25,88,69,53,45,39,32,52,35,18,0.00,0.00,13,5,13,0.00
2013-8-26,74,70,69,52,48,43,55,46,36,0.00,0.00,14,8,14,0.00
2013-8-27,85,72,68,70,61,45,91,70,29,0.00,0.00,10,2,10,0.00
2013-8-28,85,72,66,65,57,43,85,63,24,0.00,0.00,10,3,10,0.00
2013-8-29,69,66,60,61,56,47,81,70,56,0.00,0.00,16,3,16,0.00
2013-8-30,74,66,59,65,55,45,85,68,47,0.00,0.00,13,4,13,0.00
2013-8-31,73,71,69,67,65,61,89,82,69,0.00,0.00,10,2,10,0.00